Location: Girdlestone
(40.8000°S, 175.4333°E)
Time: 21:20:52
(UTC+00:00)

Daily predictions for brighter satellites

Satellite Brightness Start Highest point End
(mag) Time Altitude Azimuth Time Altitude Azimuth Time Altitude Azimuth
USA 59 Rocket 3.6 15:15:11 21° SSE 15:15:11 21° SSE 15:21:27 10° ESE
ATLAS 5 CENTAUR R/B 4.3 16:09:24 53° NNE 16:09:24 53° NNE 16:23:36 10° NNE
Cosmos 2369 Rocket 4.0 16:09:35 27° ESE 16:09:35 27° ESE 16:13:30 10° ENE
Cosmos 1943 4.4 16:35:56 20° NNE 16:39:16 39° ENE 16:44:32 10° SE
ATLAS 3B R/B 4.2 16:49:09 19° N 16:49:09 19° N 16:51:00 10° N
USA 229 DEB 3.5 16:51:29 76° NE 16:51:29 76° NE 16:56:59 10° NE
USA 229 3.4 16:51:35 76° NE 16:51:35 76° NE 16:57:06 10° NE
Cosmos 2061 Rocket 3.9 17:03:46 70° SSW 17:04:30 81° W 17:10:57 10° N
USA 59 Rocket 2.7 17:01:45 19° SSW 17:08:20 41° SE 17:15:34 10° ENE
PSLV R/B 4.1 17:07:00 10° NNE 17:11:12 55° ESE 17:11:19 55° ESE
DMSP B5D2-2 4.0 17:09:08 10° SSE 17:18:03 21° NNW 17:19:43 10° NNW
SL-19 R/B 4.4 17:08:41 10° N 17:14:58 67° WNW 17:15:38 63° WSW
OAO 3 Rocket 4.0 17:16:05 42° N 17:16:05 42° N 17:20:34 10° ENE
USA 215 3.5 17:11:17 10° NNE 17:17:32 47° NW 17:17:48 47° WNW
SL-8 R/B 4.3 17:22:42 46° S 17:22:58 47° SSE 17:27:38 10° E
Meteor 1-20 Rocket 4.1 17:23:48 35° SSW 17:26:18 83° W 17:32:01 10° N
Lacrosse 4 Rocket 3.6 17:29:45 14° S 17:32:06 21° SE 17:35:14 10° E
Tiangong -0.3 17:34:42 28° NNE 17:34:46 28° NNE 17:37:34 10° E
Cosmos 2233 Rocket 4.1 17:34:01 45° WSW 17:35:04 50° W 17:41:00 10° NNW
Spot 4 Rocket 3.9 17:30:01 10° N 17:35:10 75° WNW 17:37:18 36° SSW
H-2A R/B 4.0 17:32:45 19° NW 17:35:15 24° NNW 17:42:33 10° NE
Cosmos 1624 Rocket 4.1 17:37:51 51° W 17:38:03 51° WNW 17:43:08 10° N
Cosmos 2056 Rocket 3.7 17:41:52 46° W 17:42:04 46° WNW 17:47:09 10° N
Cosmos 2221 4.1 17:40:14 10° NNE 17:44:06 35° E 17:48:01 10° SSE
Cosmos 1452 Rocket 4.2 17:40:01 13° S 17:44:42 53° ESE 17:49:51 10° NE
Cosmos 1656 Rocket 4.2 17:46:05 36° WNW 17:46:05 36° WNW 17:50:48 10° N
DELTA 2 R/B (1) 3.5 17:46:25 41° W 17:48:26 80° N 17:54:02 10° E
CZ-2C R/B 3.9 17:46:02 10° NE 17:49:35 41° ESE 17:53:12 10° S
Cosmos 1048 Rocket 3.9 17:46:32 10° NNW 17:51:55 76° WSW 17:57:22 10° SSE
Helios 1B rocket 3.9 17:48:37 10° NE 17:52:13 35° ESE 17:55:53 10° S
Cosmos 2369 Rocket 2.5 17:51:25 37° WSW 17:52:48 43° WNW 17:58:08 10° N
Radarsat 4.5 17:51:49 10° NNE 17:57:02 86° WNW 18:02:20 10° SSW
Cosmos 2297 4.5 17:57:31 30° W 17:57:45 30° WNW 18:02:38 10° NNW
BREEZE-M DEB (TANK) 3.9 18:03:12 26° SW 18:05:07 37° S 18:15:08 10° ESE
Meteor 1-31 Rocket 3.2 18:01:49 10° NNE 18:05:32 60° ESE 18:09:20 10° S
SL-16 R/B 4.0 18:08:23 13° SSW 18:08:23 13° SSW 18:09:46 10° SSW
Cosmos 1603 3.7 18:04:39 10° NW 18:10:14 60° WSW 18:15:52 10° SSE
CORIOLIS 4.2 18:07:23 10° N 18:12:39 57° W 18:18:02 10° SSW
Cosmos 1110 Rocket 3.9 18:08:28 11° SSW 18:13:34 86° WNW 18:18:48 10° NNE
Lacrosse 5 rocket 3.3 18:11:31 11° S 18:13:35 17° SSE 18:16:02 10° ESE
SMAP 3.4 18:12:54 10° N 18:17:23 45° W 18:21:34 12° SSW
Centaur D-1A AC-31 3.5 18:15:42 10° NW 18:19:19 25° NNE 18:28:05 10° ENE
Cosmos 2034 Rocket 4.1 18:14:48 10° S 18:21:07 79° E 18:27:17 10° N
Cosmos 1943 3.9 18:18:21 10° WNW 18:23:20 31° WSW 18:28:23 10° S
Cosmos 1766 Rocket 4.0 18:20:32 10° S 18:24:54 64° E 18:29:15 10° NNE
Cosmos 1378 4.1 18:24:52 10° NW 18:32:30 - S 18:26:51 22° W
Meteor 1-26 Rocket 4.3 18:25:55 10° NNW 18:31:19 56° WSW 18:36:59 10° S
Cosmos 1933 4.5 18:28:29 10° NW 18:31:36 22° WSW 18:34:45 10° SSW
SKYMED 2 3.5 18:29:44 10° S 18:34:10 84° WSW 18:38:33 10° NNW
Meteor 2-16 Rocket 4.5 18:31:36 10° NNW 18:37:41 61° W 18:43:49 10° S
CZ-4B R/B 4.1 18:36:15 10° N 18:40:10 51° W 18:44:17 10° SSW
Cosmos 1818 3.8 18:39:48 10° NW 18:44:58 46° SW 18:50:09 10° SSE
IGS 5A 3.4 18:46:08 10° N 18:50:14 68° W 18:54:23 10° SSW
Cosmos 1726 2.2 18:47:30 10° S 18:50:40 61° E 18:53:46 10° NNE
H-2A R/B (2) 4.4 18:49:24 10° NNW 18:53:16 25° NE 19:04:06 10° E
USA 59 Rocket 1.7 18:49:56 10° SW 18:59:11 62° WNW 19:05:54 10° NNE
Tsikada Rocket 4.0 18:53:15 10° NNW 18:59:31 69° W 19:05:48 10° S
ADEOS Rocket 3.0 18:56:35 10° N 19:02:30 61° WNW 19:08:05 10° SSW
Cosmos 1833 Rocket 3.9 18:59:21 10° N 19:04:46 49° ENE 19:10:13 10° SE
Okean 3 Rocket 3.7 19:00:48 10° S 19:05:25 84° W 19:09:56 10° N
SL-8 R/B 4.1 19:00:45 10° WSW 19:05:30 55° NW 19:10:13 10° NE
Landsat 7 3.9 19:05:01 10° NNE 19:09:44 86° ESE 19:14:33 10° SSW
Lacrosse 4 Rocket 2.0 19:06:37 10° SW 19:10:31 38° WNW 19:14:17 10° N
